Location: Observatory
(52.1446°N, 0.4624°W)
Time: 23:18:16
(UTC+01:00)

ISS - Pass Details

Date: 30 March 2019
Orbit: 408 x 410 km, 51.6° (Epoch: 23 April)

Event Time Altitude Azimuth Distance (km) Brightness Sun altitude
Rises 21:24:30 0° 282° (WNW) 2,339 0.9 -24.3°
Reaches altitude 10° 21:26:39 10° 275° (W) 1,476 -0.4 -24.6°
Enters shadow 21:27:57 21° 264° (W) 995 -1.5 -24.7°
